Location: Ste-F�licit�
(48.8999°N, 67.3360°W)
Time: 06:10:46
(UTC-05:00)

DELFI C3 - Pass Details

Date: 27 October 2020
Orbit: 532 x 551 km, 97.4° (Epoch: 28 November)

Event Time Altitude Azimuth Distance (km) Brightness Sun altitude
Exits shadow 19:59:42 15° 353° (N) 1,551 ? -27.3°
Drops below altitude 10° 20:00:25 10° 352° (N) 1,842 ? -27.4°
Sets 20:02:34 0° 350° (N) 2,739 ? -27.8°
